DateTimeUTC,F1_A11,F1_S11,BsB_S11,BsG_S11,BsR_S11,BbsB_S11,BbsG_S11,BbsR_S11,BaB_A11,BaG_A11,BaR_A11,Tu_S11,T_S11,Uu_S11,U_S11,P_S11,T1_A11
2021-06-09T02:00:00Z,00000200,20000000,,,,,,,0000.09,-000.43,-000.22,17.1,23.9,04.9,03.2,0669.1,31.0
2021-06-09T02:01:00Z,00000200,20000000,,,,,,,-000.13,0000.18,0000.13,17.1,23.9,04.9,03.2,0669.1,31.0
2021-06-09T02:02:00Z,00000200,20000000,,,,,,,-000.23,-000.46,-000.23,17.1,24.0,04.9,03.2,0669.1,31.0
2021-06-09T02:03:00Z,00000200,60000000,,,,,,,0000.79,0000.66,0000.34,17.1,24.0,04.9,03.2,0669.1,30.9
2021-06-09T02:04:00Z,00000200,40000000,0000.32,0000.46,0000.06,-000.02,0000.10,0000.07,-000.00,0000.32,-000.03,17.3,23.8,05.1,03.4,0670.0,30.9
2021-06-09T02:05:00Z,00000200,00000000,0001.10,0000.25,0000.17,0000.37,0000.04,0000.27,0000.07,0000.09,0000.39,17.3,23.8,05.2,03.5,0670.1,30.9
2021-06-09T02:06:00Z,00000200,00000000,0000.45,0000.38,0000.17,-000.15,0000.13,-000.19,0000.33,-000.12,0000.25,17.3,23.8,05.3,03.6,0670.1,30.9
2021-06-09T02:07:00Z,00000200,00000000,0000.13,0000.38,0000.23,0000.45,0000.23,0000.04,0000.07,0000.45,-000.18,17.3,23.8,05.3,03.6,0670.1,30.9
2021-06-09T02:08:00Z,00000200,00000000,0000.46,0000.50,0000.29,-000.11,0000.16,0000.10,-000.06,-000.36,-000.11,17.3,23.8,05.3,03.6,0670.1,30.9
2021-06-09T02:09:00Z,00000200,00000000,0000.35,0000.24,0000.22,0000.38,0000.00,0000.11,0000.31,0000.37,0000.42,17.3,23.7,05.4,03.6,0670.1,30.9
2021-06-09T02:10:00Z,00000200,00000000,0000.94,0000.52,0000.29,0000.26,0000.10,0000.13,0000.17,0000.32,-000.12,17.3,23.8,05.4,03.6,0670.1,30.9
2021-06-09T02:11:00Z,00000200,00000000,0000.36,0000.29,0000.42,0000.29,-000.12,0000.16,0000.19,0000.37,-000.00,17.3,23.7,05.5,03.7,0670.1,30.9
2021-06-09T02:12:00Z,00000200,00000000,-000.40,0000.36,0000.41,-000.12,-000.27,0000.18,-000.20,-000.19,0000.15,17.3,23.7,05.4,03.6,0670.1,30.9
2021-06-09T02:13:00Z,00000200,00000000,0000.93,0000.47,0000.11,0000.11,-000.05,0000.19,0000.44,-000.10,0000.20,17.3,23.7,05.5,03.7,0670.1,30.9
2021-06-09T02:14:00Z,00000200,00000000,0000.37,0000.04,0000.30,0000.63,-000.02,-000.10,0000.12,0000.59,0000.13,17.3,23.7,05.4,03.6,0670.1,30.9
2021-06-09T02:15:00Z,00000200,00000000,0000.15,0000.43,0000.12,-000.23,-000.22,-000.12,0000.08,-000.25,0000.28,17.2,23.7,05.4,03.7,0670.1,30.9
2021-06-09T02:16:00Z,00000200,00000000,0000.66,0000.27,0000.01,0000.11,0000.02,-000.06,0000.11,0000.34,0000.04,17.2,23.7,05.4,03.6,0670.0,30.9
2021-06-09T02:17:00Z,00000200,00000000,-000.12,0000.17,-000.03,0000.15,-000.09,0000.04,0000.24,0000.18,0000.26,17.2,23.7,05.4,03.7,0670.0,30.9
2021-06-09T02:18:00Z,00000200,00000000,0000.54,0000.37,-000.05,0000.39,-000.02,-000.33,0000.28,0000.27,0000.09,17.2,23.7,05.5,03.7,0670.0,30.9
2021-06-09T02:19:00Z,00000200,00000000,0001.06,0000.27,0000.29,0000.41,0000.16,0000.05,0000.16,0000.26,-000.05,17.3,23.7,05.5,03.7,0670.0,30.9
2021-06-09T02:20:00Z,00000200,00000000,0000.31,0000.22,0000.21,0000.21,-000.10,-000.12,0000.16,-000.03,0000.32,17.2,23.7,05.6,03.8,0670.0,30.9
2021-06-09T02:21:00Z,00000200,00000000,0000.67,0000.67,-000.19,-000.29,0000.20,0000.14,-000.09,-000.17,-000.00,17.2,23.7,05.6,03.7,0669.9,30.9
2021-06-09T02:22:00Z,00000200,00000000,0000.65,0000.71,0000.20,0000.06,0000.15,0000.19,0000.35,0000.19,0000.01,17.2,23.7,05.5,03.7,0669.9,30.9
2021-06-09T02:23:00Z,00000200,00000000,0000.63,0000.71,0000.07,0000.17,0000.14,0000.13,0000.22,-000.06,0000.34,17.2,23.7,05.5,03.7,0669.9,30.9
2021-06-09T02:24:00Z,00000200,00000000,0000.69,0000.23,0000.45,-000.09,0000.01,-000.03,-000.02,0000.79,-000.10,17.2,23.7,05.5,03.7,0669.9,30.9
2021-06-09T02:25:00Z,00000200,00000000,0000.45,0000.64,0000.27,-000.06,0000.14,0000.16,0000.05,-000.60,-000.00,17.2,23.7,05.6,03.7,0669.9,30.9
2021-06-09T02:26:00Z,00000200,00000000,0001.43,0000.54,0000.31,0000.28,-000.00,0000.12,0000.50,0000.33,0000.08,17.2,23.7,05.5,03.7,0669.9,30.9
2021-06-09T02:27:00Z,00000200,00000000,0000.47,0000.39,0000.32,0000.13,-000.21,0000.45,-000.30,-000.17,-000.19,17.2,23.7,05.4,03.7,0669.9,30.9
2021-06-09T02:28:00Z,00000200,00000000,0000.29,0000.41,0000.05,0000.49,-000.04,-000.05,0000.06,0000.21,0000.65,17.2,23.7,05.4,03.6,0669.9,30.9
2021-06-09T02:29:00Z,00000200,00000000,0000.58,0000.66,0000.11,0000.15,0000.11,0000.05,0000.14,0000.02,-000.27,17.2,23.7,05.2,03.5,0669.9,30.9
2021-06-09T02:30:00Z,00000200,00000000,0000.40,0000.33,0000.05,0000.15,0000.08,-000.02,-000.06,-000.07,-000.09,17.2,23.7,05.2,03.5,0669.9,30.9
2021-06-09T02:31:00Z,00000200,00000000,-000.00,0000.20,0000.43,-000.14,0000.02,0000.05,0000.47,0000.37,0000.21,17.2,23.7,05.1,03.4,0669.9,30.9
2021-06-09T02:32:00Z,00000200,00000000,0000.47,0000.32,0000.29,-000.23,0000.03,0000.15,0000.06,0000.66,0000.28,17.2,23.7,05.2,03.5,0669.9,30.9
2021-06-09T02:33:00Z,00000200,00000000,0000.19,0000.42,0000.21,-000.19,0000.09,0000.22,0000.26,-000.40,0000.32,17.2,23.6,05.3,03.5,0669.9,30.9
2021-06-09T02:34:00Z,00000200,00000000,0000.37,0000.37,0000.29,0000.25,0000.20,0000.20,-000.02,0000.51,0000.13,17.2,23.7,05.3,03.6,0669.9,30.9
2021-06-09T02:35:00Z,00000200,00000000,0000.70,0000.23,-000.04,-000.19,0000.05,0000.18,0000.49,0000.54,-000.01,17.2,23.7,05.3,03.6,0670.0,30.9
2021-06-09T02:36:00Z,00000200,00000000,0000.49,0000.24,0000.27,0000.01,0000.00,0000.00,0000.18,-000.29,-000.16,17.2,23.7,05.5,03.7,0670.0,30.9
2021-06-09T02:37:00Z,00000200,00000000,0000.81,0000.32,0000.37,0000.08,-000.02,0000.28,0000.19,0000.32,0000.19,17.2,23.7,05.4,03.6,0670.0,30.9
2021-06-09T02:38:00Z,00000200,00000000,0000.43,0000.38,0000.49,-000.34,0000.05,0000.02,0000.08,0000.13,0000.23,17.2,23.7,05.5,03.7,0670.0,30.9
2021-06-09T02:39:00Z,00000200,00000000,0001.15,0000.19,0000.20,-000.06,-000.22,-000.06,0000.20,0000.19,0000.05,17.2,23.6,05.5,03.7,0670.0,30.9
2021-06-09T02:40:00Z,00000200,00000000,0000.49,0000.51,0000.56,0000.05,-000.19,0000.23,0000.01,-000.24,0000.09,17.2,23.6,05.5,03.7,0670.0,30.9
2021-06-09T02:41:00Z,00000200,00000000,0001.29,0000.47,0000.18,-000.71,0000.01,-000.15,0000.63,0000.62,0000.35,17.2,23.6,05.6,03.8,0670.0,30.9
2021-06-09T02:42:00Z,00000200,00000000,0001.06,0000.48,0000.13,0000.23,0000.18,-000.11,0000.13,0000.07,0000.03,17.2,23.6,05.5,03.7,0669.9,30.9
2021-06-09T02:43:00Z,00000200,00000000,0000.61,0000.29,0000.12,0000.54,0000.19,-000.11,0000.21,0000.56,0000.50,17.2,23.6,05.6,03.8,0669.9,30.9
2021-06-09T02:44:00Z,00000200,00000000,0000.50,0000.46,0000.53,0000.28,0000.16,-000.10,0000.40,0000.03,0000.28,17.2,23.6,05.7,03.8,0669.9,30.9
2021-06-09T02:45:00Z,00000200,00000000,0000.61,0000.49,0000.56,-000.07,0000.07,0000.02,0000.14,0000.33,0000.22,17.2,23.6,05.8,03.9,0669.9,30.9
2021-06-09T02:46:00Z,00000200,00000000,0000.92,0000.56,0000.35,-000.36,0000.19,0000.06,0000.18,0000.33,-000.16,17.2,23.6,05.9,03.9,0669.9,30.9
2021-06-09T02:47:00Z,00000200,00000000,0000.90,0000.16,0000.19,0000.23,-000.12,0000.23,0000.26,0000.12,0000.25,17.2,23.6,05.9,04.0,0669.8,30.9
2021-06-09T02:48:00Z,00000200,00000000,0000.53,0000.16,0000.11,0000.81,-000.10,-000.00,0000.20,0000.03,0000.21,17.2,23.6,05.9,04.0,0669.8,30.9
2021-06-09T02:49:00Z,00000200,00000000,-000.20,0000.43,-000.02,-000.23,0000.16,-000.13,0000.67,0000.52,0000.00,17.2,23.6,06.0,04.0,0669.8,30.9
2021-06-09T02:50:00Z,00000200,00000000,0000.00,0000.25,0000.21,0000.37,0000.06,0000.06,0000.17,0000.54,0000.43,17.2,23.6,06.1,04.1,0669.8,30.9
2021-06-09T02:51:00Z,00000200,00000000,0000.47,0000.49,0000.39,0000.48,-000.08,-000.19,0000.01,-000.04,-000.03,17.2,23.6,06.1,04.1,0669.8,30.9
2021-06-09T02:52:00Z,00000200,00000000,0000.39,0000.40,0000.33,0000.20,0000.08,0000.02,0000.36,0000.43,0000.14,17.2,23.6,06.2,04.2,0669.8,30.9
2021-06-09T02:53:00Z,00000200,00000000,0000.41,0000.61,0000.35,-000.19,0000.29,0000.08,0000.12,0000.34,0000.31,17.2,23.6,06.2,04.2,0669.7,30.9
2021-06-09T02:54:00Z,00000200,00000000,0000.16,0000.51,0000.23,0000.18,0000.06,0000.31,0000.41,-000.11,0000.17,17.2,23.6,06.2,04.2,0669.7,30.9
2021-06-09T02:55:00Z,00000200,00000000,0000.26,0000.38,0000.20,0000.30,-000.02,-000.02,0000.34,0000.03,0000.35,17.2,23.6,06.3,04.3,0669.7,30.9
2021-06-09T02:56:00Z,00000200,00000000,0000.31,0000.39,0000.05,-000.36,-000.04,0000.09,0000.18,0000.54,0000.09,17.2,23.6,06.3,04.3,0669.7,30.9
2021-06-09T02:57:00Z,00000200,40000000,,,,,,,-000.39,-000.55,-000.30,17.2,23.6,06.4,04.3,0669.7,30.9
2021-06-09T02:58:00Z,00000200,60000000,,,,,,,0000.21,0000.08,0000.05,16.9,23.7,06.1,04.0,0668.8,30.9
2021-06-09T02:59:00Z,00000200,20000000,,,,,,,-000.18,-000.09,0000.01,16.9,23.8,06.3,04.1,0668.8,30.9
